CAPE
nan nan nan nan nan nan nan nan nan nan nan nan nan nan nan nan nan nan nan nan nan nan nan nan nan nan nan 2 10 10 18 26 36 36 43 52 57 57 65 78 78 90 99 109 109 122 130 136 136 151 154 160 160 160 173 177 177 177 184 187 187 187 194 213 213 236 262 285 320 320 318 285 275 275 293 291 291 291 285 283 283 271 265 274 274 277
nan nan nan nan nan nan nan nan nan nan nan nan nan nan nan nan nan nan nan nan nan nan nan nan nan nan nan nan 8 8 18 25 34 34 48 54 64 64 76 92 92 102 117 128 128 137 146 154 154 165 169 170 176 176 170 179 179 176 182 183 183 182 197 215 215 229 268 306 333 333 333 311 305 305 302 296 274 274 256 252 252 246 263 272 272 280
nan nan nan nan nan nan nan nan nan nan nan nan nan nan nan nan nan nan nan nan nan nan nan nan nan nan nan nan 11 11 16 24 34 34 47 58 69 69 82 99 99 115 137 148 148 158 161 164 164 171 182 186 180 180 180 179 179 182 180 182 182 173 187 194 194 222 262 293 333 333 353 331 328 328 303 282 259 259 243 230 230 238 250 265 265 265
nan nan nan nan nan nan nan nan nan nan nan nan nan nan nan nan nan nan nan nan nan nan nan nan nan nan nan nan 1 1 18 25 36 36 52 61 74 74 88 106 106 128 151 163 163 169 166 169 169 174 193 204 198 198 185 183 183 178 174 163 163 161 174 187 187 202 231 253 295 295 313 317 310 310 292 263 237 237 227 241 241 278 300 291 291 275
nan nan nan nan nan nan nan nan nan nan nan nan nan nan nan nan nan nan nan nan nan nan nan nan nan nan nan nan nan nan 20 31 42 42 53 67 78 78 94 114 114 142 165 173 173 173 177 177 177 187 203 213 208 208 201 188 188 175 165 165 165 159 173 198 198 226 243 239 250 250 269 273 275 275 275 267 261 261 262 261 261 307 336 320 320 310
nan nan nan nan nan nan nan nan nan nan nan nan nan nan nan nan nan nan nan nan nan nan nan nan nan nan nan nan 0 0 28 41 44 44 59 71 82 82 101 128 128 163 175 183 183 178 189 199 199 211 234 233 227 227 211 201 201 199 189 185 185 194 211 219 219 238 255 251 245 245 245 247 282 282 292 290 282 282 270 280 280 327 332 347 347 350
nan nan nan nan nan 0 nan nan nan nan nan nan nan nan nan nan nan nan nan nan nan nan nan nan nan nan nan nan 15 15 37 42 48 48 52 72 83 83 120 151 151 176 187 183 183 190 209 220 220 239 244 240 238 238 231 230 230 218 219 218 218 224 232 234 234 243 250 242 241 241 241 250 269 269 295 295 277 277 270 280 280 333 355 361 361 364
nan 0 3 2 2 nan nan nan nan nan nan nan nan nan nan nan nan nan nan nan nan nan nan 1 1 1 nan nan nan nan nan nan nan nan nan 4 73 73 137 192 192 207 211 231 231 259 279 307 307 312 308 296 291 291 285 282 282 272 260 235 235 248 240 242 242 260 255 270 260 260 258 271 267 267 278 286 284 284 278 286 286 296 343 349 349 383
5 5 3 nan nan nan nan nan nan nan nan nan nan nan nan nan nan nan nan nan nan nan 1 6 6 4 nan nan nan nan nan 3 0 0 nan nan 1 1 113 200 200 214 241 258 258 273 294 307 307 316 322 325 320 320 301 286 286 294 277 267 267 278 281 282 282 271 259 250 270 270 284 296 307 307 295 289 280 280 259 252 252 267 294 330 330 358
3 1 1 1 1 2 1 nan nan nan nan nan 0 0 1 nan 0 0 5 10 10 3 nan nan nan nan nan nan nan nan nan nan 51 51 86 56 147 147 156 142 142 143 229 243 243 255 243 249 249 273 290 302 319 319 288 287 287 269 271 282 282 302 320 327 327 325 308 277 273 273 283 299 312 312 324 322 305 305 266 259 259 237 264 275 275 298
nan 0 3 4 4 2 nan nan nan nan nan nan 1 1 2 6 22 22 35 24 24 1 nan nan nan nan nan nan nan nan nan nan nan nan nan 35 88 88 123 119 119 133 172 180 180 183 189 209 209 226 233 210 217 217 231 231 231 248 273 295 295 304 332 338 338 360 356 330 289 289 273 280 285 285 310 322 329 329 296 286 286 263 265 268 268 295
4 4 4 1 1 0 nan nan nan nan 0 nan 2 2 14 23 15 15 3 2 2 nan nan nan nan nan nan nan nan nan nan nan nan nan nan nan nan nan 10 11 11 15 32 64 64 102 141 163 163 174 162 136 179 179 173 173 173 245 261 286 286 317 333 346 346 341 339 342 327 327 319 282 271 271 278 316 325 325 334 329 329 307 292 282 282 299
7 4 1 0 0 0 nan nan nan nan 0 1 0 0 nan nan 0 0 nan nan nan nan nan nan nan nan nan nan nan nan nan nan nan nan nan nan nan nan nan nan nan nan nan nan nan nan 43 116 116 113 137 123 156 156 177 187 187 228 256 281 281 326 350 331 331 362 359 366 357 357 340 318 295 295 281 308 330 330 326 336 336 331 306 305 305 296
4 2 1 1 1 nan nan nan nan nan nan 0 nan nan nan nan nan nan nan nan nan nan nan nan nan nan nan nan nan nan nan nan nan nan 5 9 0 0 nan nan nan nan nan nan nan nan nan 7 7 nan 62 81 108 108 125 178 178 229 234 281 281 318 356 398 398 398 393 381 384 384 349 320 310 310 287 282 301 301 327 339 339 334 324 312 312 316
3 1 1 nan nan nan nan nan nan nan nan nan nan nan nan nan nan nan nan nan nan nan nan nan nan nan nan nan nan nan nan 5 46 46 25 0 nan nan nan nan nan nan nan nan nan nan nan nan nan nan nan nan nan nan 40 90 90 192 218 264 264 319 351 389 389 385 394 399 383 383 373 336 308 308 286 271 292 292 313 328 328 321 327 319 319 337
2 1 1 nan nan nan nan nan nan nan 1 nan nan nan nan nan 2 2 11 10 10 4 nan nan nan nan nan nan nan nan nan 39 29 29 nan nan nan nan nan nan nan nan nan nan nan nan nan nan nan nan nan nan 43 43 94 93 93 163 189 233 233 283 296 311 311 317 350 357 384 384 368 345 324 324 295 282 263 263 288 306 306 316 324 327 327 348
2 2 3 4 4 2 nan 0 2 2 2 nan nan nan nan 17 18 18 18 14 14 4 2 1 1 2 nan nan nan nan 0 31 7 7 nan nan nan nan nan nan nan nan nan nan nan nan nan nan nan nan nan nan 54 54 67 106 106 144 160 203 203 209 204 217 217 241 265 313 343 343 355 357 315 315 281 266 260 260 274 290 290 299 316 337 337 342
3 3 3 2 2 1 1 2 1 1 3 nan 3 3 7 11 7 7 5 3 3 2 2 2 2 1 nan nan nan nan nan nan nan nan nan nan nan nan nan nan nan nan nan nan nan nan nan nan nan nan nan 24 66 66 79 99 99 122 144 153 153 149 143 144 144 164 188 202 239 239 279 298 298 298 274 250 230 230 240 260 260 292 306 314 314 333
7 9 10 8 8 8 10 5 2 2 7 11 11 11 nan nan nan nan nan nan nan 0 1 2 2 3 1 2 nan nan nan nan nan nan nan nan nan nan nan nan nan nan nan nan nan nan nan nan nan nan 10 49 67 67 79 97 97 111 121 119 119 111 102 98 98 104 107 121 143 143 186 223 262 262 264 234 213 213 218 234 234 267 302 308 308 310
14 17 18 14 14 15 19 18 14 14 8 11 4 4 1 nan nan nan nan nan nan nan nan 0 0 nan nan nan nan nan nan nan nan nan nan nan nan nan nan nan nan nan nan nan nan nan nan nan nan nan 7 23 55 55 71 87 87 99 102 101 101 104 90 83 83 83 88 87 97 97 96 130 167 167 205 208 195 195 179 208 208 234 264 297 297 289
15 15 11 6 6 5 5 nan 0 0 3 8 0 0 nan nan nan nan nan nan nan nan nan nan nan nan nan nan nan nan nan nan nan nan nan nan nan nan nan nan nan nan nan nan nan nan nan nan nan nan nan 25 50 50 63 73 73 77 79 82 82 79 79 73 73 84 92 105 99 99 88 92 103 103 125 145 145 145 148 171 171 221 261 278 278 283
5 0 nan nan nan nan 0 nan 2 2 9 0 nan nan nan nan nan nan nan nan nan nan nan nan nan nan nan nan nan nan nan nan nan nan nan nan nan nan nan nan nan nan nan nan nan nan nan nan nan nan nan 40 53 53 64 62 62 67 69 75 75 74 74 73 73 92 109 122 119 119 114 101 97 97 98 104 106 106 116 145 145 201 246 258 258 267
nan nan nan nan nan nan nan nan 0 0 2 nan nan nan nan nan nan nan nan nan nan nan nan nan nan nan nan nan nan nan nan nan nan nan nan nan nan nan nan nan nan nan nan nan nan nan nan nan nan nan nan 44 44 44 47 56 56 58 60 66 66 73 81 92 92 114 130 129 121 121 123 125 132 132 131 115 104 104 103 132 132 175 213 252 252 264
nan nan nan nan nan nan nan nan nan nan nan nan nan nan nan nan nan nan nan 0 0 nan nan nan nan nan nan nan nan nan nan nan nan nan nan nan nan nan nan 0 0 11 0 nan nan nan nan nan nan nan nan 16 30 30 41 42 42 51 60 70 70 85 104 126 126 138 134 117 107 107 107 121 136 136 163 169 131 131 127 148 148 172 202 245 245 257
nan nan nan 1 1 10 3 1 1 1 nan nan nan nan 2 7 0 0 0 nan nan nan nan nan nan nan nan nan nan nan nan nan nan nan nan nan nan nan nan nan nan 1 nan nan nan nan nan nan nan nan nan nan 19 19 28 35 35 47 68 87 87 98 118 134 134 135 118 102 92 92 93 99 118 118 133 162 157 157 169 157 157 178 209 240 240 237
29 21 15 36 36 110 132 145 148 148 94 33 14 14 27 4 nan nan nan nan nan nan nan nan nan nan nan nan nan nan nan nan nan nan nan nan nan nan nan nan nan nan nan nan nan nan nan nan nan nan nan nan 7 7 20 35 35 51 71 78 78 86 95 98 98 95 92 89 90 90 92 97 98 98 115 132 150 150 151 147 147 161 189 200 200 208
151 149 156 147 147 126 124 136 181 181 214 139 51 51 19 nan nan nan nan nan nan nan nan nan nan nan nan nan nan nan nan nan nan nan nan nan nan nan nan nan nan nan nan nan nan nan nan nan nan nan nan nan nan nan 19 32 32 46 54 51 51 56 60 68 68 69 79 83 83 83 84 84 91 91 106 120 128 128 113 106 106 134 148 159 159 184
106 81 60 62 62 85 118 161 178 178 166 148 150 150 90 6 2 2 nan nan nan nan nan nan nan nan nan nan nan nan nan nan nan nan nan nan nan nan nan nan nan nan nan nan nan nan 10 nan nan nan nan nan nan nan 3 18 18 26 27 28 28 36 47 61 61 71 78 84 84 84 77 77 79 79 93 102 94 94 84 85 85 91 116 108 108 28
46 37 56 77 77 102 131 148 146 146 130 133 142 142 86 9 6 6 nan nan nan nan nan nan nan nan nan nan nan nan nan nan nan nan nan nan nan nan nan nan nan nan nan 1 1 nan nan nan nan nan nan nan nan nan nan 0 0 0 1 10 10 23 41 57 57 71 78 79 76 76 69 70 73 73 76 80 73 73 67 69 69 73 76 55 55 14
nan 9 33 67 67 102 97 61 87 87 123 122 120 120 83 nan nan nan nan nan nan nan 0 3 3 3 2 0 nan nan nan nan nan nan nan nan nan nan nan nan nan nan 1 2 2 0 nan nan nan nan nan nan nan nan nan nan nan nan nan 3 3 9 33 54 54 64 67 71 65 65 63 62 63 63 63 65 62 62 66 66 66 64 30 11 11 13
nan nan nan nan nan nan 7 nan 23 23 87 105 93 93 50 nan nan nan nan nan nan nan 1 5 5 4 4 2 nan nan nan nan nan nan nan nan nan nan nan nan nan nan 3 2 2 1 nan nan nan nan nan nan nan nan nan nan nan nan nan nan nan nan 17 39 39 49 54 55 55 55 54 50 56 56 53 56 64 64 73 78 78 58 21 6 6 2
nan nan nan nan nan nan nan nan nan nan nan nan nan nan 22 16 1 1 nan nan nan nan 1 9 9 8 4 7 8 8 3 nan 0 0 1 0 4 4 7 7 7 6 2 1 1 2 0 nan nan nan nan nan nan nan nan nan nan nan nan nan nan nan nan 10 10 9 8 26 35 35 40 41 41 41 44 53 71 71 68 74 74 78 39 5 5 nan
nan nan nan nan nan nan nan nan nan nan nan nan nan nan nan nan 12 12 nan nan nan nan 1 7 7 7 4 4 3 3 1 nan 5 5 15 0 8 8 4 4 4 2 0 nan nan 1 1 0 0 nan nan nan nan nan nan nan nan nan nan nan nan nan nan nan nan nan nan 1 1 1 17 26 32 32 41 53 68 68 84 87 87 89 74 17 17 29
nan nan nan nan nan nan nan nan nan nan nan nan nan nan nan nan nan nan nan nan nan nan nan nan nan 1 2 2 1 1 nan nan 7 7 21 1 5 5 2 1 1 1 nan nan nan 1 1 nan nan nan nan nan nan nan nan nan nan nan nan nan nan nan nan nan nan nan nan nan nan nan nan nan 4 4 23 60 83 83 103 109 109 107 99 57 57 47
nan nan nan nan nan nan nan nan nan nan nan nan nan nan nan nan nan nan nan nan nan nan nan nan nan nan nan 0 0 0 nan nan 0 0 21 2 0 0 nan nan nan 1 3 2 2 1 nan nan nan 1 1 1 nan nan nan nan nan nan nan nan nan nan nan nan nan nan nan nan nan nan nan nan nan nan 0 60 102 102 124 124 124 120 112 100 100 55
nan nan nan nan nan nan nan nan nan nan nan nan nan nan nan nan nan nan nan nan nan nan nan nan nan nan nan nan nan nan nan nan nan nan 4 nan nan nan nan 1 1 3 4 1 1 nan nan nan nan 1 6 1 nan nan nan nan nan nan nan nan nan nan nan nan nan nan nan nan nan nan nan nan nan nan 3 100 126 126 127 120 120 113 99 92 92 79
nan nan nan nan nan nan nan nan nan nan nan nan nan nan nan nan nan nan nan nan nan nan nan nan nan nan nan nan nan nan nan nan nan nan nan nan nan nan nan 1 1 4 3 0 0 0 nan nan nan 1 2 1 nan nan nan nan nan nan nan nan nan nan nan nan nan nan nan nan nan nan nan nan nan nan 16 101 99 99 106 100 100 85 85 79 79 77
nan nan nan nan nan nan nan nan 14 14 9 nan nan nan nan nan nan nan nan nan nan nan nan nan nan nan nan 0 nan nan nan nan nan nan nan nan nan nan 1 3 3 3 2 1 1 1 1 2 2 2 3 0 2 2 0 nan nan nan nan nan nan nan nan nan nan nan nan nan nan nan nan nan nan nan nan 9 1 1 nan nan nan 18 67 40 40 69
nan nan nan nan nan nan 1 5 14 14 nan nan nan nan nan nan nan nan nan nan nan nan nan nan nan nan nan nan nan nan nan nan nan nan nan nan nan nan 0 1 1 nan 1 1 1 3 5 6 6 6 6 2 nan nan nan nan nan nan nan nan nan nan nan nan nan nan nan nan nan nan nan nan nan nan nan nan nan nan nan nan nan nan nan nan nan nan
nan nan nan 3 3 2 nan nan nan nan nan nan nan nan nan nan nan nan nan nan nan nan nan nan nan nan nan nan nan nan nan nan nan nan nan nan nan nan 0 0 0 2 2 3 3 9 8 9 9 10 9 2 1 1 1 0 0 0 5 nan nan nan nan nan nan nan nan nan nan nan nan nan nan nan nan nan nan nan nan nan nan nan nan nan nan nan
nan nan nan nan nan nan nan nan nan nan nan nan nan nan nan nan nan nan nan nan nan nan nan nan nan nan nan nan nan nan nan nan 0 0 nan nan nan nan nan nan nan 0 3 2 2 1 4 2 2 2 2 3 7 7 6 1 1 6 10 2 2 nan nan nan nan nan nan nan nan nan nan nan nan nan nan nan nan nan nan nan nan nan nan nan nan nan
nan nan nan nan nan nan nan nan nan nan nan nan nan nan nan nan nan nan nan nan nan nan nan nan nan nan nan nan nan nan nan nan nan nan nan nan nan nan nan nan nan 0 0 1 1 0 3 9 9 9 9 9 7 7 2 nan nan 1 3 0 0 nan nan nan nan nan nan nan nan nan nan nan nan nan nan 1 nan nan nan nan nan 1 2 nan nan nan
nan nan nan nan nan nan nan nan nan nan nan nan nan nan nan nan nan nan nan nan nan nan nan nan nan nan nan 0 nan nan nan nan nan nan nan nan nan nan nan nan nan 0 1 6 6 11 13 18 18 17 12 3 1 1 1 1 1 nan nan 0 0 nan nan nan nan nan nan nan nan nan nan nan 0 0 0 nan nan nan nan nan nan 3 2 nan nan nan
nan nan nan nan nan nan nan nan nan nan nan nan nan nan nan nan nan nan nan nan nan nan nan nan nan nan 0 nan nan nan nan nan nan nan nan nan nan nan nan nan nan nan nan nan nan 1 3 4 4 1 nan 0 1 1 1 0 0 nan nan nan nan nan nan nan nan nan nan nan nan nan nan nan nan nan nan nan nan nan nan nan nan nan nan nan nan nan
nan nan nan nan nan nan nan nan nan nan nan nan nan nan nan nan nan nan nan nan nan nan nan nan nan nan 0 nan nan nan nan nan nan nan nan nan 8 8 nan nan nan nan nan nan nan nan nan 1 1 0 0 0 0 0 0 nan nan nan 1 2 2 nan nan nan nan nan nan nan nan nan nan nan nan nan nan nan nan nan nan nan nan nan nan nan nan nan
nan nan nan nan nan nan nan nan nan nan nan nan nan nan nan nan nan nan nan nan nan nan nan nan nan 5 0 nan nan nan nan nan nan nan nan nan nan nan nan nan nan nan nan nan nan nan nan nan nan 0 nan nan nan nan nan nan nan nan 0 6 6 1 nan nan nan nan nan nan nan nan nan nan nan nan nan nan nan nan nan nan nan nan nan nan nan nan
nan nan nan nan nan nan nan nan nan nan nan nan nan nan nan nan nan nan nan nan nan nan nan nan nan 2 nan nan nan nan nan nan nan nan nan nan nan nan nan nan nan nan nan nan nan nan nan nan nan nan nan nan nan nan nan nan nan nan 2 3 3 2 3 nan nan nan nan nan nan nan nan nan nan nan nan nan nan nan nan nan nan nan nan nan nan nan
nan nan nan nan nan nan nan nan nan nan nan nan nan nan nan nan nan nan nan nan nan nan nan 0 0 nan nan nan nan nan nan nan nan nan nan nan nan nan nan nan nan nan nan nan nan nan nan nan nan nan nan nan nan nan nan nan nan nan 3 2 2 1 5 nan nan nan nan nan nan nan nan nan nan nan nan nan nan nan nan nan nan nan nan nan nan nan
nan nan nan nan nan nan nan nan nan nan nan nan nan nan nan nan 35 35 nan nan nan nan nan 1 1 nan nan nan nan nan nan nan nan nan nan nan 0 0 0 0 0 nan nan nan nan nan nan nan nan nan nan nan nan nan 0 3 3 1 0 nan nan 0 2 nan nan nan nan nan nan nan nan nan nan nan 0 3 0 0 0 0 0 nan nan nan nan nan
nan nan nan nan nan nan nan nan nan nan nan nan nan nan nan nan nan nan nan nan nan nan nan 2 2 nan nan nan nan nan nan nan nan nan nan nan 0 0 0 nan nan nan nan nan nan nan nan nan nan nan nan 0 1 1 17 3 3 0 nan nan nan nan 0 nan nan nan nan nan nan nan nan nan nan nan nan nan nan nan nan nan nan nan nan nan nan nan
nan nan nan nan nan nan nan nan nan nan nan nan nan nan nan nan nan nan nan nan nan nan 0 nan nan nan nan nan nan nan nan nan nan nan nan nan 0 0 0 0 0 nan nan nan nan nan nan nan nan nan nan 1 0 0 nan nan nan 1 nan nan nan nan nan nan nan nan nan nan nan nan nan nan nan nan nan nan nan nan nan nan nan nan nan nan nan nan
CIN
nan nan nan nan nan nan nan nan nan nan nan nan nan nan nan nan nan nan nan nan nan nan nan nan nan nan nan -3 -0 -0 -0 -0 -0 -0 -0 -0 -0 -0 -0 -0 -0 -0 -0 -0 -0 -0 -0 -0 -0 -0 -0 -0 -0 -0 -0 -0 -0 -0 -0 -0 -0 -0 -0 -0 -0 -0 -0 -0 -0 -0 -0 -0 -0 -0 -0 -0 -0 -0 -0 -0 -0 -0 -0 -0 -0 -0
nan nan nan nan nan nan nan nan nan nan nan nan nan nan nan nan nan nan nan nan nan nan nan nan nan nan nan nan -0 -0 -0 -0 -0 -0 -0 -0 -0 -0 -0 -0 -0 -0 -0 -0 -0 -0 -0 -0 -0 -0 -0 -0 -0 -0 -0 -0 -0 -0 -0 -0 -0 -0 -0 -0 -0 -0 -0 -0 -0 -0 -0 -0 -0 -0 -0 -0 -0 -0 -0 -0 -0 -0 -0 -0 -0 -0
nan nan nan nan nan nan nan nan nan nan nan nan nan nan nan nan nan nan nan nan nan nan nan nan nan nan nan nan -0 -0 -0 -0 -0 -0 -0 -0 -0 -0 -0 -0 -0 -0 -0 -0 -0 -0 -0 -0 -0 -0 -0 -0 -0 -0 -0 -0 -0 -0 -0 -0 -0 -0 -0 -0 -0 -0 -0 -0 -0 -0 -0 -0 -0 -0 -0 -0 -0 -0 -0 -0 -0 -0 -0 -0 -0 -0
nan nan nan nan nan nan nan nan nan nan nan nan nan nan nan nan nan nan nan nan nan nan nan nan nan nan nan nan -3 -3 -0 -0 -0 -0 -0 -0 -0 -0 -0 -0 -0 -0 -0 -0 -0 -0 -0 -0 -0 -0 -0 -0 -0 -0 -0 -0 -0 -0 -0 -0 -0 -0 -0 -0 -0 -0 -0 -0 -0 -0 -0 -0 -0 -0 -0 -0 -0 -0 -0 -0 -0 -0 -0 -0 -0 -0
nan nan nan nan nan nan nan nan nan nan nan nan nan nan nan nan nan nan nan nan nan nan nan nan nan nan nan nan nan nan -0 -0 -0 -0 -0 -0 -0 -0 -0 -0 -0 -0 -0 -0 -0 -0 -0 -0 -0 -0 -0 -0 -0 -0 -0 -0 -0 -0 -0 -0 -0 -0 -0 -0 -0 -0 -0 -0 -0 -0 -0 -0 -0 -0 -0 -0 -0 -0 -0 -0 -0 -0 -0 -0 -0 -0
nan nan nan nan nan nan nan nan nan nan nan nan nan nan nan nan nan nan nan nan nan nan nan nan nan nan nan nan -16 -16 -0 -0 -0 -0 -0 -0 -0 -0 -0 -0 -0 -0 -0 -0 -0 -0 -0 -0 -0 -0 -0 -0 -0 -0 -1 -1 -1 -1 -1 -1 -1 -1 -0 -0 -0 -0 -0 -0 -0 -0 -0 -0 -0 -0 -0 -0 -0 -0 -0 -0 -0 -0 -0 -0 -0 -0
nan nan nan nan nan -10 nan nan nan nan nan nan nan nan nan nan nan nan nan nan nan nan nan nan nan nan nan nan -4 -4 -0 -0 -0 -0 -0 -0 -0 -0 -0 -0 -0 -0 -0 -0 -0 -0 -0 -0 -0 -0 -0 -0 -1 -1 -1 -0 -0 -0 -0 -2 -2 -1 -0 -0 -0 -0 -0 -0 -0 -0 -0 -0 -0 -0 -0 -0 -0 -0 -0 -0 -0 -0 -0 -0 -0 -0
nan -13 -10 -10 -10 nan nan nan nan nan nan nan nan nan nan nan nan nan nan nan nan nan nan -37 -37 -35 nan nan nan nan nan nan nan nan nan -4 -0 -0 -0 -0 -0 -0 -0 -0 -0 -0 -0 -0 -0 -0 -0 -0 -0 -0 -0 -2 -2 -3 -0 -3 -3 -2 -1 -1 -1 -0 -0 -0 -0 -0 -0 -0 -0 -0 -0 -0 -0 -0 -0 -0 -0 -0 -0 -0 -0 -0
-9 -5 -8 nan nan nan nan nan nan nan nan nan nan nan nan nan nan nan nan nan nan nan -36 -20 -20 -16 nan nan nan nan nan -16 -24 -24 nan nan -36 -36 -0 -0 -0 -0 -0 -0 -0 -0 -0 -0 -0 -0 -0 -0 -0 -0 -1 -4 -4 -1 -0 -0 -0 -0 -0 -0 -0 -0 -0 -0 -0 -0 -0 -0 -0 -0 -0 -0 -0 -0 -0 -0 -0 -0 -0 -0 -0 -0
-14 -15 -13 -12 -12 -12 -10 nan nan nan nan nan -23 -23 -20 nan -18 -18 -10 -10 -10 -32 nan nan nan nan nan nan nan nan nan nan -0 -0 -0 -0 -0 -0 -0 -1 -1 -2 -0 -0 -0 -0 -0 -1 -1 -0 -0 -0 -0 -0 -0 -0 -0 -0 -0 -0 -0 -0 -0 -0 -0 -0 -0 -0 -0 -0 -0 -0 -0 -0 -0 -0 -0 -0 -0 -0 -0 -0 -0 -0 -0 -0
nan -18 -13 -12 -12 -14 nan nan nan nan nan nan -30 -30 -28 -26 -8 -8 -2 -5 -5 -29 nan nan nan nan nan nan nan nan nan nan nan nan nan -0 -0 -0 -0 -0 -0 -1 -0 -2 -2 -4 -6 -5 -5 -0 -0 -0 -0 -0 -0 -0 -0 -0 -0 -0 -0 -0 -0 -0 -0 -0 -0 -0 -0 -0 -0 -0 -0 -0 -0 -0 -0 -0 -0 -0 -0 -0 -0 -0 -0 -0
-10 -11 -13 -18 -18 -21 nan nan nan nan -41 nan -21 -21 -10 -11 -21 -21 -26 -13 -13 nan nan nan nan nan nan nan nan nan nan nan nan nan nan nan nan nan -17 -12 -12 -8 -11 -16 -16 -17 -13 -6 -6 -0 -0 -0 -0 -0 -0 -0 -0 -0 -0 -0 -0 -0 -0 -0 -0 -0 -0 -1 -1 -1 -0 -0 -0 -0 -0 -0 -0 -0 -0 -0 -0 -0 -0 -0 -0 -0
-9 -11 -20 -21 -21 -25 nan nan nan nan -28 -25 -24 -24 nan nan -43 -43 nan nan nan nan nan nan nan nan nan nan nan nan nan nan nan nan nan nan nan nan nan nan nan nan nan nan nan nan -36 -11 -11 -7 -0 -0 -0 -0 -0 -0 -0 -0 -0 -0 -0 -0 -1 -1 -1 -1 -1 -1 -1 -1 -0 -0 -0 -0 -0 -0 -0 -0 -0 -0 -0 -0 -0 -0 -0 -0
-9 -15 -19 -18 -18 nan nan nan nan nan nan -29 nan nan nan nan nan nan nan nan nan nan nan nan nan nan nan nan nan nan nan nan nan nan -16 -10 -20 -20 nan nan nan nan nan nan nan nan nan -50 -50 nan -25 -19 -4 -4 -5 -1 -1 -0 -0 -0 -0 -0 -2 -3 -3 -2 -1 -0 -0 -0 -0 -0 -0 -0 -0 -0 -0 -0 -0 -0 -0 -0 -0 -0 -0 -0
-13 -16 -14 nan nan nan nan nan nan nan nan nan nan nan nan nan nan nan nan nan nan nan nan nan nan nan nan nan nan nan nan -13 -2 -2 -1 -19 nan nan nan nan nan nan nan nan nan nan nan nan nan nan nan nan nan nan -27 -2 -2 -0 -0 -0 -0 -0 -2 -3 -3 -1 -0 -0 -0 -0 -0 -0 -0 -0 -0 -0 -0 -0 -0 -0 -0 -0 -0 -0 -0 -0
-16 -16 -12 nan nan nan nan nan nan nan -15 nan nan nan nan nan -27 -27 -11 -10 -10 -16 nan nan nan nan nan nan nan nan nan -5 -1 -1 nan nan nan nan nan nan nan nan nan nan nan nan nan nan nan nan nan nan -7 -7 -0 -0 -0 -0 -0 -0 -0 -0 -0 -1 -1 -0 -0 -0 -0 -0 -0 -0 -0 -0 -0 -0 -0 -0 -0 -0 -0 -0 -0 -0 -0 -0
-15 -14 -9 -8 -8 -10 nan -19 -12 -12 -17 nan nan nan nan -10 -9 -9 -7 -10 -10 -15 -18 -17 -17 -8 nan nan nan nan -46 -6 -11 -11 nan nan nan nan nan nan nan nan nan nan nan nan nan nan nan nan nan nan -1 -1 -0 -0 -0 -0 -0 -0 -0 -0 -0 -0 -0 -0 -0 -0 -0 -0 -0 -0 -0 -0 -0 -0 -0 -0 -0 -0 -0 -0 -0 -0 -0 -0
-12 -13 -12 -9 -9 -12 -15 -15 -22 -22 -19 nan -17 -17 -15 -14 -15 -15 -15 -16 -16 -15 -15 -15 -15 -12 nan nan nan nan nan nan nan nan nan nan nan nan nan nan nan nan nan nan nan nan nan nan nan nan nan -4 -0 -0 -0 -0 -0 -0 -0 -0 -0 -0 -0 -0 -0 -0 -0 -0 -0 -0 -0 -0 -0 -0 -0 -0 -0 -0 -0 -0 -0 -0 -0 -0 -0 -0
-7 -10 -9 -7 -7 -9 -10 -16 -21 -21 -12 -9 -10 -10 nan nan nan nan nan nan nan -16 -14 -11 -11 -9 -6 -0 nan nan nan nan nan nan nan nan nan nan nan nan nan nan nan nan nan nan nan nan nan nan -17 -1 -0 -0 -0 -0 -0 -0 -0 -0 -0 -0 -0 -0 -0 -0 -0 -0 -0 -0 -0 -0 -0 -0 -0 -0 -0 -0 -0 -0 -0 -0 -0 -0 -0 -0
-4 -5 -5 -5 -5 -5 -4 -7 -9 -9 -10 -8 -8 -8 -10 nan nan nan nan nan nan nan nan -6 -6 nan nan nan nan nan nan nan nan nan nan nan nan nan nan nan nan nan nan nan nan nan nan nan nan nan -30 -5 -0 -0 -0 -0 -0 -0 -0 -0 -0 -0 -0 -0 -0 -0 -0 -0 -0 -0 -0 -0 -0 -0 -0 -0 -0 -0 -0 -0 -0 -0 -0 -0 -0 -0
-4 -4 -9 -12 -12 -7 -6 nan -13 -13 -10 -4 -6 -6 nan nan nan nan nan nan nan nan nan nan nan nan nan nan nan nan nan nan nan nan nan nan nan nan nan nan nan nan nan nan nan nan nan nan nan nan nan -3 -0 -0 -0 -0 -0 -0 -0 -0 -0 -0 -0 -0 -0 -0 -0 -0 -0 -0 -0 -0 -0 -0 -0 -0 -0 -0 -0 -0 -0 -0 -0 -0 -0 -0
-8 -9 nan nan nan nan -7 nan -9 -9 -3 -2 nan nan nan nan nan nan nan nan nan nan nan nan nan nan nan nan nan nan nan nan nan nan nan nan nan nan nan nan nan nan nan nan nan nan nan nan nan nan nan -0 -0 -0 -0 -0 -0 -0 -0 -0 -0 -0 -0 -0 -0 -0 -0 -0 -0 -0 -0 -0 -0 -0 -0 -0 -0 -0 -0 -0 -0 -0 -0 -0 -0 -0
nan nan nan nan nan nan nan nan -5 -5 -2 nan nan nan nan nan nan nan nan nan nan nan nan nan nan nan nan nan nan nan nan nan nan nan nan nan nan nan nan nan nan nan nan nan nan nan nan nan nan nan nan -0 -0 -0 -0 -0 -0 -0 -0 -0 -0 -0 -0 -0 -0 -0 -0 -0 -0 -0 -0 -0 -0 -0 -0 -0 -0 -0 -0 -0 -0 -0 -0 -0 -0 -0
nan nan nan nan nan nan nan nan nan nan nan nan nan nan nan nan nan nan nan -0 -0 nan nan nan nan nan nan nan nan nan nan nan nan nan nan nan nan nan nan -53 -53 -20 -47 nan nan nan nan nan nan nan nan -0 -0 -0 -0 -0 -0 -0 -0 -0 -0 -0 -0 -0 -0 -0 -0 -0 -0 -0 -0 -0 -0 -0 -0 -0 -0 -0 -0 -0 -0 -0 -0 -0 -0 -0
nan nan nan -32 -32 -0 -28 -42 -23 -23 nan nan nan nan -21 -16 -0 -0 -0 nan nan nan nan nan nan nan nan nan nan nan nan nan nan nan nan nan nan nan nan nan nan -32 nan nan nan nan nan nan nan nan nan nan -0 -0 -0 -0 -0 -0 -0 -0 -0 -0 -0 -0 -0 -0 -0 -0 -0 -0 -0 -0 -0 -0 -0 -0 -0 -0 -0 -0 -0 -0 -0 -0 -0 -0
-10 -3 -7 -1 -1 -0 -0 -0 -0 -0 -3 -11 -12 -12 -12 -11 nan nan nan nan nan nan nan nan nan nan nan nan nan nan nan nan nan nan nan nan nan nan nan nan nan nan nan nan nan nan nan nan nan nan nan nan -0 -0 -0 -0 -0 -0 -0 -0 -0 -0 -0 -0 -0 -0 -0 -0 -0 -0 -0 -0 -0 -0 -0 -0 -0 -0 -0 -0 -0 -0 -0 -0 -0 -0
-0 -0 -0 -0 -0 -0 -0 -0 -0 -0 -0 -0 -15 -15 -23 nan nan nan nan nan nan nan nan nan nan nan nan nan nan nan nan nan nan nan nan nan nan nan nan nan nan nan nan nan nan nan nan nan nan nan nan nan nan nan -0 -0 -0 -0 -0 -0 -0 -0 -0 -0 -0 -0 -0 -0 -0 -0 -0 -0 -0 -0 -0 -0 -0 -0 -0 -0 -0 -0 -0 -0 -0 -0
-0 -0 -0 -0 -0 -0 -0 -0 -0 -0 -0 -0 -0 -0 -10 -24 -14 -14 nan nan nan nan nan nan nan nan nan nan nan nan nan nan nan nan nan nan nan nan nan nan nan nan nan nan nan nan -0 nan nan nan nan nan nan nan -3 -0 -0 -0 -0 -0 -0 -0 -0 -0 -0 -0 -0 -0 -0 -0 -0 -0 -0 -0 -0 -0 -0 -0 -0 -0 -0 -0 -0 -0 -0 -4
-0 -0 -0 -0 -0 -0 -0 -0 -0 -0 -0 -0 -0 -0 -10 -38 -17 -17 nan nan nan nan nan nan nan nan nan nan nan nan nan nan nan nan nan nan nan nan nan nan nan nan nan -15 -15 nan nan nan nan nan nan nan nan nan nan -0 -0 -0 -0 -0 -0 -0 -0 -0 -0 -0 -0 -0 -0 -0 -0 -0 -0 -0 -0 -0 -0 -0 -0 -0 -0 -0 -0 -2 -2 -10
nan -8 -1 -0 -0 -0 -0 -3 -0 -0 -0 -0 -0 -0 -1 nan nan nan nan nan nan nan -5 -4 -4 -5 -7 -14 nan nan nan nan nan nan nan nan nan nan nan nan nan nan -15 -12 -12 -17 nan nan nan nan nan nan nan nan nan nan nan nan nan -0 -0 -0 -0 -0 -0 -0 -0 -0 -0 -0 -0 -0 -0 -0 -0 -0 -0 -0 -0 -0 -0 -1 -14 -19 -19 -16
nan nan nan nan nan nan -30 nan -27 -27 -0 -0 -0 -0 -28 nan nan nan nan nan nan nan -8 -5 -5 -6 -6 -7 nan nan nan nan nan nan nan nan nan nan nan nan nan nan -16 -9 -9 -7 nan nan nan nan nan nan nan nan nan nan nan nan nan nan nan nan -0 -0 -0 -0 -0 -0 -0 -0 -0 -0 -0 -0 -0 -0 -0 -0 -0 -0 -0 -2 -23 -25 -25 -32
nan nan nan nan nan nan nan nan nan nan nan nan nan nan -47 -46 -77 -77 nan nan nan nan -20 -7 -7 -7 -7 -4 -2 -2 -5 nan -15 -15 -17 -9 -5 -5 -8 -8 -8 -6 -13 -17 -17 -8 -5 nan nan nan nan nan nan nan nan nan nan nan nan nan nan nan nan -0 -0 -0 -1 -0 -0 -0 -0 -0 -0 -0 -0 -0 -0 -0 -0 -0 -0 -0 -27 -44 -44 nan
nan nan nan nan nan nan nan nan nan nan nan nan nan nan nan nan -47 -47 nan nan nan nan -26 -9 -9 -6 -6 -6 -6 -6 -10 nan -1 -1 -4 -8 -3 -3 -8 -8 -8 -10 -19 nan nan -14 -8 -5 -5 nan nan nan nan nan nan nan nan nan nan nan nan nan nan nan nan nan nan -13 -14 -14 -0 -0 -0 -0 -0 -0 -0 -0 -0 -0 -0 -0 -5 -41 -41 -17
nan nan nan nan nan nan nan nan nan nan nan nan nan nan nan nan nan nan nan nan nan nan nan nan nan -13 -6 -5 -6 -6 nan nan -0 -0 -2 -5 -3 -3 -7 -8 -8 -11 nan nan nan -10 -8 nan nan nan nan nan nan nan nan nan nan nan nan nan nan nan nan nan nan nan nan nan nan nan nan nan -5 -5 -0 -0 -0 -0 -0 -0 -0 -0 -0 -17 -17 -17
nan nan nan nan nan nan nan nan nan nan nan nan nan nan nan nan nan nan nan nan nan nan nan nan nan nan nan -9 -4 -4 nan nan -4 -4 -1 -3 -4 -4 nan nan nan -13 -9 -10 -10 -9 nan nan nan -2 -4 -8 nan nan nan nan nan nan nan nan nan nan nan nan nan nan nan nan nan nan nan nan nan nan -11 -0 -0 -0 -0 -0 -0 -0 -0 -0 -0 -10
nan nan nan nan nan nan nan nan nan nan nan nan nan nan nan nan nan nan nan nan nan nan nan nan nan nan nan nan nan nan nan nan nan nan -1 nan nan nan nan -10 -10 -11 -7 -9 -9 nan nan nan nan -3 -1 -5 nan nan nan nan nan nan nan nan nan nan nan nan nan nan nan nan nan nan nan nan nan nan -14 -0 -0 -0 -0 -0 -0 -0 -0 -0 -0 -0
nan nan nan nan nan nan nan nan nan nan nan nan nan nan nan nan nan nan nan nan nan nan nan nan nan nan nan nan nan nan nan nan nan nan nan nan nan nan nan -10 -10 -8 -8 -11 -11 -12 nan nan nan -4 -6 -8 nan nan nan nan nan nan nan nan nan nan nan nan nan nan nan nan nan nan nan nan nan nan -8 -0 -0 -0 -0 -0 -0 -0 -0 -0 -0 -0
nan nan nan nan nan nan nan nan -13 -13 -14 nan nan nan nan nan nan nan nan nan nan nan nan nan nan nan nan -7 nan nan nan nan nan nan nan nan nan nan -8 -7 -7 -6 -7 -11 -11 -12 -11 -9 -9 -7 -8 -9 -1 -1 -3 nan nan nan nan nan nan nan nan nan nan nan nan nan nan nan nan nan nan nan nan -7 -14 -14 nan nan nan -3 -0 -0 -0 -0
nan nan nan nan nan nan -27 -22 -15 -15 nan nan nan nan nan nan nan nan nan nan nan nan nan nan nan nan nan nan nan nan nan nan nan nan nan nan nan nan -10 -6 -6 nan -10 -13 -13 -12 -8 -8 -8 -7 -4 -5 nan nan nan nan nan nan nan nan nan nan nan nan nan nan nan nan nan nan nan nan nan nan nan nan nan nan nan nan nan nan nan nan nan nan
nan nan nan -20 -20 -29 nan nan nan nan nan nan nan nan nan nan nan nan nan nan nan nan nan nan nan nan nan nan nan nan nan nan nan nan nan nan nan nan -21 -8 -8 -4 -5 -6 -6 -4 -4 -3 -3 -2 -2 -4 -6 -6 -6 -10 -10 -8 -1 nan nan nan nan nan nan nan nan nan nan nan nan nan nan nan nan nan nan nan nan nan nan nan nan nan nan nan
nan nan nan nan nan nan nan nan nan nan nan nan nan nan nan nan nan nan nan nan nan nan nan nan nan nan nan nan nan nan nan nan -36 -36 nan nan nan nan nan nan nan -12 -3 -3 -3 -8 -2 -4 -4 -3 -6 -6 -3 -3 -3 -5 -5 -0 -0 -1 -1 nan nan nan nan nan nan nan nan nan nan nan nan nan nan nan nan nan nan nan nan nan nan nan nan nan
nan nan nan nan nan nan nan nan nan nan nan nan nan nan nan nan nan nan nan nan nan nan nan nan nan nan nan nan nan nan nan nan nan nan nan nan nan nan nan nan nan -21 -13 -3 -3 -7 -4 -3 -3 -3 -4 -3 -2 -2 -4 nan nan -1 -0 -3 -3 nan nan nan nan nan nan nan nan nan nan nan nan nan nan -1 nan nan nan nan nan -3 -5 nan nan nan
nan nan nan nan nan nan nan nan nan nan nan nan nan nan nan nan nan nan nan nan nan nan nan nan nan nan nan -11 nan nan nan nan nan nan nan nan nan nan nan nan nan -28 -8 -1 -1 -1 -2 -1 -1 -1 -2 -4 -2 -2 -1 -1 -1 nan nan -2 -2 nan nan nan nan nan nan nan nan nan nan nan -1 -1 -1 nan nan nan nan nan nan -0 -0 nan nan nan
nan nan nan nan nan nan nan nan nan nan nan nan nan nan nan nan nan nan nan nan nan nan nan nan nan nan -2 nan nan nan nan nan nan nan nan nan nan nan nan nan nan nan nan nan nan -1 -1 -1 -1 -3 nan -6 -3 -3 -1 -2 -2 nan nan nan nan nan nan nan nan nan nan nan nan nan nan nan nan nan nan nan nan nan nan nan nan nan nan nan nan nan
nan nan nan nan nan nan nan nan nan nan nan nan nan nan nan nan nan nan nan nan nan nan nan nan nan nan -18 nan nan nan nan nan nan nan nan nan -5 -5 nan nan nan nan nan nan nan nan nan -2 -2 -2 -5 -5 -3 -3 -2 nan nan nan -1 -2 -2 nan nan nan nan nan nan nan nan nan nan nan nan nan nan nan nan nan nan nan nan nan nan nan nan nan
nan nan nan nan nan nan nan nan nan nan nan nan nan nan nan nan nan nan nan nan nan nan nan nan nan -4 -23 nan nan nan nan nan nan nan nan nan nan nan nan nan nan nan nan nan nan nan nan nan nan -3 nan nan nan nan nan nan nan nan -2 -1 -1 -3 nan nan nan nan nan nan nan nan nan nan nan nan nan nan nan nan nan nan nan nan nan nan nan nan
nan nan nan nan nan nan nan nan nan nan nan nan nan nan nan nan nan nan nan nan nan nan nan nan nan -12 nan nan nan nan nan nan nan nan nan nan nan nan nan nan nan nan nan nan nan nan nan nan nan nan nan nan nan nan nan nan nan nan -2 -2 -2 -2 -2 nan nan nan nan nan nan nan nan nan nan nan nan nan nan nan nan nan nan nan nan nan nan nan
nan nan nan nan nan nan nan nan nan nan nan nan nan nan nan nan nan nan nan nan nan nan nan -6 -6 nan nan nan nan nan nan nan nan nan nan nan nan nan nan nan nan nan nan nan nan nan nan nan nan nan nan nan nan nan nan nan nan nan -2 -2 -2 -1 -1 nan nan nan nan nan nan nan nan nan nan nan nan nan nan nan nan nan nan nan nan nan nan nan
nan nan nan nan nan nan nan nan nan nan nan nan nan nan nan nan -0 -0 nan nan nan nan nan -8 -8 nan nan nan nan nan nan nan nan nan nan nan -12 -12 -10 -13 -13 nan nan nan nan nan nan nan nan nan nan nan nan nan -0 -1 -1 -5 -5 nan nan -2 -1 nan nan nan nan nan nan nan nan nan nan nan -3 -1 -7 -7 -11 -13 -13 nan nan nan nan nan
nan nan nan nan nan nan nan nan nan nan nan nan nan nan nan nan nan nan nan nan nan nan nan -11 -11 nan nan nan nan nan nan nan nan nan nan nan -14 -14 -14 nan nan nan nan nan nan nan nan nan nan nan nan -3 -0 -0 -0 -3 -3 -5 nan nan nan nan -1 nan nan nan nan nan nan nan nan nan nan nan nan nan nan nan nan nan nan nan nan nan nan nan
nan nan nan nan nan nan nan nan nan nan nan nan nan nan nan nan nan nan nan nan nan nan -22 nan nan nan nan nan nan nan nan nan nan nan nan nan -17 -17 -12 -14 -14 nan nan nan nan nan nan nan nan nan nan -3 -13 -13 nan nan nan -2 nan nan nan nan nan nan nan nan nan nan nan nan nan nan nan nan nan nan nan nan nan nan nan nan nan nan nan nan
Wind_Speed
3 3 3 3 3 4 4 4 5 5 6 6 6 6 7 8 8 9 11 11 11 10 10 10 10 10 12 16 19 22 23 24 25 25 25 25 25 25 24 24 24 24 24 24 24 23 23 23 23 23 23 22 22 21 20 20 20 20 20 21 21 21 21 21 21 22 22 22 23 23 23 23 22 22 22 21 21 20 20 20 20 20 20 20 19 19
4 3 3 3 4 4 4 4 5 5 6 7 7 7 8 9 9 8 9 10 10 10 9 9 9 10 11 13 17 21 23 24 24 25 25 25 25 25 25 25 25 25 24 24 24 24 23 23 23 23 22 22 21 20 20 19 19 19 19 19 19 19 19 19 20 20 20 21 21 22 22 22 22 22 22 21 21 20 20 20 20 20 20 20 20 20
4 3 3 3 3 4 4 5 5 5 6 7 8 9 9 10 9 9 8 8 9 9 8 8 9 9 10 12 15 19 22 23 24 24 25 25 25 25 25 25 25 25 24 24 24 23 23 23 23 22 22 22 21 20 19 19 18 18 18 18 17 17 18 18 18 19 19 19 20 20 21 21 21 21 21 20 20 20 19 19 20 20 20 20 20 20
3 3 3 3 3 4 4 5 5 6 6 7 9 9 10 9 8 8 7 8 8 8 8 9 9 9 9 10 13 17 21 23 24 24 24 25 25 25 25 25 25 25 25 24 24 23 23 23 23 23 22 22 21 20 19 19 18 18 17 17 16 16 17 17 18 18 18 18 19 19 19 20 20 20 20 20 20 19 19 19 19 19 19 19 19 19
3 3 3 3 3 4 4 5 6 6 7 7 8 8 8 7 7 7 7 7 8 8 8 8 9 9 8 8 11 15 20 23 24 24 24 24 24 25 25 25 25 25 25 24 24 23 23 23 23 23 23 22 21 20 19 18 18 17 17 17 16 16 16 17 17 18 18 18 18 18 18 19 19 19 19 19 19 19 19 18 18 18 19 18 18 18
4 3 4 3 4 5 5 5 6 6 6 6 6 7 7 6 6 6 7 7 8 8 8 8 8 8 9 9 12 16 19 22 23 23 23 23 24 24 24 25 25 25 25 24 24 24 24 24 23 23 22 22 21 19 18 17 16 16 16 16 16 16 15 16 16 17 17 17 17 18 18 18 18 18 18 18 18 18 18 18 18 18 18 18 17 17
4 4 4 5 5 5 5 5 5 6 5 5 5 6 6 6 6 6 7 7 8 8 8 8 8 8 9 10 12 15 16 18 19 20 21 22 22 23 23 24 25 25 25 25 24 23 23 22 22 21 21 20 19 18 17 16 15 15 16 16 16 16 15 15 15 15 16 16 17 17 17 17 17 17 17 18 18 18 17 17 17 17 17 17 17 17
6 6 6 6 5 5 5 5 5 5 5 5 5 6 6 6 6 7 7 7 7 7 7 7 7 7 7 8 9 10 11 12 12 14 16 17 19 20 21 22 23 24 24 23 22 21 20 20 20 20 19 19 18 17 16 15 15 15 16 16 17 17 16 16 15 15 15 15 16 16 16 17 17 17 17 17 17 17 17 17 17 17 17 17 16 16
7 7 6 5 5 6 6 5 5 4 5 5 6 6 8 8 8 7 7 7 7 6 6 6 7 7 6 6 6 7 9 9 10 10 13 13 14 15 17 19 20 20 20 19 19 18 18 18 18 19 19 19 18 17 16 16 16 16 17 18 18 18 18 17 17 16 16 16 15 15 15 16 16 16 17 17 17 17 17 17 17 17 16 16 16 16
7 7 7 6 5 5 6 6 5 5 5 6 6 7 7 8 9 8 8 7 5 4 4 5 7 8 7 6 6 7 9 11 13 15 17 17 17 18 17 16 15 14 16 16 17 16 16 16 17 18 18 19 19 18 17 17 17 17 18 18 19 19 19 19 18 18 17 17 16 15 15 15 15 15 16 16 17 17 17 17 17 17 16 17 17 17
6 6 6 6 5 5 5 6 6 5 5 6 6 7 6 6 7 8 8 7 6 5 5 5 6 7 8 7 6 7 8 9 11 13 16 17 18 18 16 14 13 13 15 15 15 15 15 15 15 16 18 19 19 19 18 18 18 18 19 19 19 19 20 20 20 19 19 18 17 16 16 15 15 15 15 16 16 17 17 17 18 17 17 17 17 17
6 6 5 5 5 4 5 5 5 5 5 5 5 5 5 5 5 6 7 8 8 8 7 6 6 6 7 7 7 6 6 7 8 9 10 10 10 9 9 10 10 11 13 13 14 14 14 15 16 17 17 18 19 19 19 19 19 19 20 20 20 20 20 21 21 21 20 19 18 17 16 16 15 15 15 15 16 16 17 18 18 18 18 18 18 18
5 5 4 4 4 4 4 4 4 4 4 4 5 5 5 5 5 5 6 8 8 8 7 7 6 6 6 6 5 5 5 6 7 7 6 5 4 5 5 6 7 8 8 9 9 11 13 15 16 17 17 18 18 19 20 20 20 20 21 21 21 21 21 21 21 21 21 20 19 17 16 16 16 16 15 15 15 16 16 17 18 19 19 19 19 18
5 4 4 4 4 4 4 5 5 5 5 5 5 5 5 5 5 5 5 6 6 6 6 7 6 6 5 5 5 5 5 6 5 5 5 4 4 4 4 5 5 6 6 7 7 9 11 12 12 13 15 16 17 17 18 19 20 21 22 22 22 22 21 21 21 21 21 21 20 19 17 17 16 16 16 15 15 16 16 17 17 18 19 19 19 19
5 5 5 6 6 5 5 5 6 6 6 5 5 5 5 6 5 5 5 6 6 6 5 6 6 6 5 5 4 4 4 4 4 4 4 4 4 3 4 4 5 6 6 6 7 8 10 9 8 8 10 11 13 14 16 18 20 22 22 23 22 22 21 20 20 21 21 21 21 20 19 18 17 16 16 16 15 15 16 16 17 17 18 18 18 19
5 5 6 7 6 6 6 6 6 7 7 6 5 4 5 5 5 5 5 6 6 5 5 6 7 7 6 5 4 3 3 3 3 3 4 4 4 4 4 4 5 5 5 6 6 6 7 7 7 7 8 10 14 17 19 19 21 22 23 23 22 21 20 20 19 20 20 21 21 21 20 19 18 18 17 16 16 15 15 16 16 17 17 18 18 18
5 5 6 7 7 7 6 6 7 7 6 5 5 5 5 5 5 5 5 5 5 5 5 5 6 6 6 5 3 2 2 3 3 4 5 5 5 4 5 4 5 5 6 6 6 6 6 6 6 6 7 10 14 18 19 20 21 22 22 23 22 22 21 21 20 20 20 20 20 20 20 20 20 19 18 17 16 16 16 16 16 17 17 17 18 18
5 6 6 7 7 7 7 6 6 6 5 5 5 5 5 5 5 5 6 6 6 6 6 6 6 6 5 4 3 2 2 3 4 4 5 6 6 5 4 4 5 5 6 6 5 5 5 5 5 6 8 13 16 18 20 21 21 22 22 23 23 23 23 23 22 22 21 21 21 20 20 20 20 20 20 18 18 17 16 16 17 17 17 17 17 17
6 6 6 7 7 6 6 5 5 4 4 4 4 5 5 5 5 6 7 7 7 7 7 7 6 4 3 3 3 3 3 4 4 5 6 7 6 5 4 4 5 5 6 6 5 5 5 5 6 9 12 15 17 19 20 21 22 22 22 23 23 24 24 24 24 24 24 23 22 21 21 20 20 20 20 20 19 18 18 17 17 17 17 17 17 17
7 6 6 6 6 6 6 5 5 5 5 5 5 6 7 7 7 7 7 7 7 7 6 6 5 3 2 4 5 5 5 5 5 5 5 6 6 5 4 5 5 6 6 5 5 4 5 5 5 8 12 14 17 19 21 22 22 23 23 23 24 24 24 25 25 25 25 24 24 23 22 22 21 21 21 20 20 19 19 18 17 17 17 17 17 17
8 7 6 6 6 6 6 6 6 7 7 7 7 7 7 7 8 8 7 7 6 5 3 2 2 2 3 5 6 6 5 5 5 5 4 5 5 5 4 4 5 5 6 5 4 4 4 4 4 5 9 14 17 20 21 22 22 23 23 24 24 24 24 25 24 24 24 24 23 23 23 23 23 22 22 22 21 20 20 18 18 17 17 17 17 17
8 8 7 7 7 7 9 9 9 9 8 8 7 7 7 7 7 8 7 6 4 3 2 2 3 4 5 6 6 6 5 5 4 4 4 5 6 5 4 4 5 5 5 4 4 4 4 4 5 6 10 15 18 20 22 22 22 23 23 23 23 24 24 23 23 22 22 21 21 22 22 23 23 23 23 23 22 22 21 19 18 17 17 17 17 17
9 9 9 9 9 9 9 9 8 8 7 7 7 7 6 6 7 7 6 4 3 3 3 4 5 5 5 6 6 6 5 5 4 4 4 5 6 6 4 4 5 5 5 4 4 5 5 5 6 7 10 16 19 20 21 22 22 22 23 23 23 22 22 21 20 19 19 19 19 20 20 21 22 23 24 24 23 22 21 20 18 17 17 17 17 17
10 10 9 9 8 8 7 7 6 6 6 6 6 6 6 6 6 5 3 3 3 4 4 5 5 5 5 5 5 5 4 4 3 3 3 5 5 6 5 5 6 6 6 5 5 5 6 6 6 6 8 13 17 19 20 21 22 22 22 22 21 21 20 19 18 17 17 17 17 18 19 20 21 22 23 23 22 21 20 18 17 17 16 16 16 16
8 8 7 7 8 9 9 8 8 8 8 8 7 7 6 6 5 4 4 3 4 4 4 4 5 5 4 5 4 4 3 3 3 3 3 4 5 5 4 4 5 6 6 5 5 5 6 6 6 6 7 10 14 17 19 20 21 21 21 21 21 21 20 19 18 17 17 17 17 17 18 18 19 20 21 21 20 19 17 16 16 15 16 16 16 16
10 10 10 12 15 17 19 19 18 17 17 12 9 6 5 4 4 4 4 3 3 3 4 4 4 5 4 4 4 4 4 4 3 3 3 4 4 5 4 4 4 5 6 6 5 5 6 7 7 7 6 8 11 14 17 18 19 20 21 21 22 22 21 21 20 20 19 19 18 18 18 18 18 19 20 20 19 17 15 14 13 14 14 15 15 15
16 17 18 20 21 21 22 22 22 22 21 18 14 10 7 5 4 4 4 3 3 3 3 4 5 5 4 4 4 4 4 4 3 3 3 3 4 4 4 4 4 5 7 6 6 6 8 8 8 7 6 6 7 10 14 17 18 20 21 22 22 22 22 22 22 21 21 20 20 19 18 18 18 18 19 19 18 16 13 12 12 12 13 13 12 11
16 17 18 19 19 20 20 20 19 19 19 18 18 17 11 6 5 5 5 3 3 3 3 4 5 5 4 4 4 4 4 4 3 3 3 3 3 4 3 4 5 5 6 6 6 6 8 7 7 6 6 6 6 7 11 14 17 18 20 21 21 22 22 22 21 21 21 20 20 19 19 18 18 18 18 18 17 16 14 13 12 11 11 9 7 5
13 14 15 16 17 17 17 16 16 16 17 18 19 18 12 6 4 4 4 3 2 3 4 5 5 5 5 5 5 4 4 3 3 3 3 3 3 3 3 4 4 5 5 5 5 5 5 5 5 5 5 6 6 7 8 11 13 14 15 18 19 20 20 20 21 21 20 20 20 20 19 19 18 18 18 18 18 17 15 14 12 10 7 6 5 4
8 9 10 11 11 12 11 10 11 12 15 17 18 17 12 6 3 3 3 2 2 3 5 6 6 6 6 5 5 5 4 3 3 4 4 4 3 4 4 4 4 4 4 4 4 4 4 4 4 4 5 6 6 6 6 7 8 8 9 12 14 15 18 19 20 20 20 20 20 20 19 19 19 19 19 19 18 18 16 15 12 8 4 4 4 4
5 5 5 6 6 6 7 7 7 8 11 13 13 12 9 4 2 2 2 2 2 3 4 5 6 6 6 5 5 4 4 3 4 4 4 3 3 3 3 4 4 3 3 3 3 4 5 5 4 4 5 6 6 6 6 6 6 6 6 7 8 10 14 16 18 18 18 19 19 19 19 19 19 19 19 19 19 18 17 16 13 9 4 3 3 4
4 5 4 5 4 4 5 5 5 5 6 7 7 6 5 3 2 2 2 2 2 2 3 5 6 6 5 5 5 4 4 4 5 5 4 3 3 3 3 3 3 3 3 3 3 4 5 5 5 5 5 6 6 6 6 6 6 5 6 5 5 7 12 14 15 15 15 16 17 18 18 19 19 19 19 19 19 19 18 17 14 10 4 3 3 3
5 5 5 5 5 4 4 4 4 5 5 5 4 3 3 2 2 2 2 2 2 2 3 4 5 5 5 5 5 5 5 4 5 6 6 3 3 3 2 3 3 4 3 3 3 4 4 5 5 5 6 6 5 5 6 7 6 6 6 6 5 6 9 10 10 10 11 12 13 14 15 16 17 17 18 18 18 18 18 18 16 12 7 4 2 3
5 5 5 5 5 4 4 4 5 5 5 5 4 3 2 1 2 2 2 1 1 2 2 3 4 4 5 5 5 6 5 5 6 7 7 4 3 3 3 4 4 4 4 3 4 4 4 5 6 6 6 6 5 5 5 6 6 6 5 5 5 6 7 7 7 8 8 8 8 8 10 11 12 13 15 16 16 17 18 17 17 15 12 7 4 2
5 5 5 5 5 5 5 5 5 5 5 5 4 3 2 2 2 2 2 2 2 2 2 3 3 3 4 5 6 6 6 5 6 7 7 5 3 3 4 3 4 4 4 4 4 4 4 6 6 7 6 6 5 5 5 5 6 6 5 6 6 6 6 6 7 7 7 7 6 6 6 6 7 8 10 12 14 15 16 16 16 15 14 11 8 5
5 5 5 5 5 5 5 5 5 5 5 4 3 3 2 2 2 2 2 3 3 3 4 4 3 3 4 4 5 6 7 6 6 7 7 5 4 4 3 3 3 4 4 5 5 5 5 6 7 8 8 7 6 6 5 5 5 5 5 6 6 6 6 6 6 6 6 6 6 6 6 6 6 6 7 11 12 14 14 14 14 14 14 13 11 8
4 4 4 4 4 4 5 5 4 4 4 3 3 3 4 3 3 3 3 4 4 4 5 5 5 5 5 5 5 6 6 6 6 7 7 6 5 4 4 4 4 4 5 5 6 6 6 6 7 7 7 6 6 6 6 6 6 6 6 5 6 6 6 6 6 5 5 5 6 6 6 5 6 6 7 10 11 11 11 12 12 12 13 13 12 11
4 4 4 4 4 3 4 4 3 3 3 3 3 3 4 4 4 4 4 4 4 5 5 5 5 6 7 8 7 7 7 7 7 8 8 7 6 5 5 5 5 5 5 6 6 6 6 6 6 6 6 6 7 8 8 8 7 7 6 6 5 5 5 5 5 5 4 5 6 6 6 6 6 6 6 7 6 6 6 6 7 9 10 10 10 11
3 3 4 4 4 3 3 3 3 3 2 3 3 4 4 4 4 4 4 4 5 5 5 5 5 5 6 8 8 9 8 8 8 8 8 7 6 5 5 5 6 6 6 6 6 6 6 5 5 5 6 6 7 8 8 8 8 8 7 6 5 5 5 4 4 4 4 4 5 6 6 5 5 5 5 5 5 4 4 4 5 6 6 5 6 7
3 3 4 4 4 3 3 3 3 3 3 3 4 4 4 4 4 4 4 4 4 5 5 5 5 5 5 6 7 7 7 6 7 7 6 6 5 5 5 5 6 6 6 5 5 5 5 5 6 6 7 7 7 7 7 7 7 8 9 7 5 5 5 5 5 4 4 4 4 4 4 4 5 5 5 5 4 4 4 4 4 4 4 3 2 3
3 4 4 4 4 4 4 3 3 3 3 3 3 3 3 3 4 4 4 4 4 4 4 4 4 5 5 5 5 5 5 5 6 6 4 5 5 5 4 4 5 5 6 6 5 5 6 6 7 7 7 7 7 8 8 9 9 10 10 8 7 6 7 7 6 5 4 4 4 4 5 5 6 6 6 5 5 4 4 4 4 4 4 2 2 2
4 4 4 4 4 4 3 3 3 3 3 2 2 3 3 3 3 4 4 4 4 4 4 4 4 4 5 4 3 3 3 4 4 4 4 5 5 5 5 5 4 4 5 6 6 6 6 6 6 6 6 6 7 7 8 9 10 10 9 8 8 8 8 6 5 3 3 4 4 4 5 5 5 5 6 5 5 4 5 4 5 5 4 3 2 2
4 4 4 4 4 4 4 4 4 3 2 2 2 2 3 3 3 4 4 4 4 4 4 4 4 5 5 4 3 2 2 3 3 3 4 5 6 6 6 6 5 5 4 5 6 6 6 6 6 6 6 6 7 8 9 9 9 9 9 9 8 7 5 4 4 3 3 4 4 4 4 4 4 4 5 5 5 5 5 5 6 6 5 3 2 2
3 3 3 3 3 3 4 3 3 2 2 2 2 3 3 3 3 4 4 4 4 5 5 4 4 4 4 3 2 2 3 3 3 3 4 6 7 7 7 7 6 6 5 5 6 7 7 8 7 7 7 7 7 7 8 8 8 8 8 8 8 7 5 5 5 4 4 4 4 3 4 4 4 4 4 4 4 4 4 4 3 3 4 3 3 3
3 3 2 3 3 3 3 3 3 2 2 2 3 3 3 3 3 3 3 3 4 4 4 4 4 4 2 2 2 2 3 3 3 3 3 5 8 9 8 7 6 6 6 6 6 6 7 8 8 8 7 7 7 8 8 8 8 8 8 8 8 7 6 5 5 4 4 4 4 4 4 4 4 4 4 4 4 4 4 3 3 3 3 3 3 3
2 2 2 2 2 3 4 3 3 2 2 3 3 3 3 3 3 3 3 3 4 4 4 4 4 3 2 2 2 3 3 4 4 4 3 4 5 5 5 6 6 6 6 6 6 6 6 7 8 8 8 8 8 8 8 7 7 6 6 7 7 7 6 5 4 4 4 4 4 4 4 4 4 4 4 4 5 4 4 3 3 3 3 3 3 3
2 2 2 2 2 3 3 3 3 2 2 3 3 3 3 3 3 3 3 3 3 4 4 4 3 3 2 3 3 4 4 5 5 5 5 4 4 4 5 5 5 6 6 6 6 6 6 7 7 6 7 7 8 8 7 7 6 5 5 6 6 6 5 4 4 3 3 4 4 4 4 4 4 4 4 4 4 4 4 3 2 2 2 3 3 3
3 3 2 2 2 2 3 2 2 2 2 3 3 3 3 3 3 4 3 3 3 4 5 4 3 2 2 3 3 4 4 5 5 5 6 6 5 5 5 5 5 5 6 6 7 7 7 7 7 7 6 6 6 6 6 5 4 4 4 5 6 6 6 5 4 4 4 4 4 4 4 4 4 4 4 4 4 4 3 3 2 2 2 3 3 3
3 2 2 2 2 2 3 2 2 2 3 3 3 3 2 3 4 5 3 3 3 3 4 3 3 2 2 2 3 4 5 5 5 5 5 5 6 6 6 6 6 5 5 5 5 5 5 6 7 7 6 5 5 5 5 4 4 4 4 4 5 5 6 5 5 4 4 4 4 4 4 3 3 3 4 4 4 4 4 3 3 3 3 3 3 3
2 2 2 2 2 2 3 3 3 3 3 3 3 2 2 2 2 3 3 3 3 3 3 3 2 2 2 3 3 4 4 4 4 4 5 4 5 5 6 6 6 6 6 5 5 5 5 5 4 4 4 3 3 3 3 4 5 5 4 4 4 5 6 6 5 5 4 4 4 4 4 3 3 3 3 4 4 4 4 4 4 4 3 3 3 4
2 2 2 2 2 2 3 3 3 3 3 3 3 2 2 2 2 2 3 3 3 3 3 2 1 1 2 3 3 3 4 4 4 5 5 4 5 5 5 5 6 6 6 6 6 6 6 6 5 5 5 7 8 8 5 5 6 6 5 5 5 5 5 6 6 5 5 4 4 3 3 3 3 3 3 3 3 4 4 4 5 5 4 4 4 4
Wind_Direction
284 292 297 311 313 310 306 313 316 315 310 310 309 307 305 304 302 299 298 297 294 292 290 289 289 290 292 295 297 299 300 300 301 301 302 302 302 302 302 301 301 300 300 299 299 298 298 298 297 297 297 297 296 296 295 294 293 293 292 292 292 292 292 293 293 293 292 291 291 290 289 287 286 284 282 282 281 280 279 277 276 275 274 274 275 275
290 294 298 312 315 311 305 313 316 314 310 309 307 305 303 301 298 295 293 290 287 285 285 286 287 289 290 292 295 297 298 299 300 300 301 301 301 301 301 301 300 299 298 297 297 297 297 297 297 297 297 297 297 297 296 295 294 294 293 293 293 293 293 292 292 292 291 291 291 291 291 290 289 287 286 284 283 281 280 278 277 276 276 275 275 274
296 297 300 310 312 310 305 311 311 307 304 302 300 299 297 296 294 292 290 287 285 283 283 285 287 289 289 290 293 295 296 297 298 298 299 299 300 300 300 300 299 298 297 296 296 296 297 298 299 299 299 298 298 297 297 296 295 294 294 293 293 293 293 291 291 290 290 290 290 291 291 291 291 290 289 287 285 283 282 280 279 278 277 276 274 273
296 299 303 307 307 304 301 305 304 301 297 295 293 292 291 290 289 288 286 286 287 287 286 286 287 287 288 288 289 291 293 294 295 296 297 298 298 299 299 299 298 297 296 296 297 299 300 301 301 300 300 299 298 297 297 297 296 297 297 297 297 296 295 293 292 292 291 291 291 291 291 291 291 290 290 289 288 286 284 282 280 279 278 276 275 273
297 299 304 308 305 301 299 299 298 296 293 291 290 289 288 287 287 289 289 290 291 291 290 288 287 286 286 285 286 288 290 291 293 294 295 296 298 299 299 299 298 297 297 298 300 302 303 303 302 301 301 300 299 299 298 299 299 300 301 302 302 301 299 297 296 295 295 293 292 291 289 288 288 289 289 289 288 287 286 284 282 281 279 278 277 275
297 299 303 303 301 300 300 298 295 294 293 291 290 290 290 290 291 293 295 295 294 292 290 288 286 284 283 282 282 284 286 289 291 293 295 297 299 300 300 300 299 299 299 301 303 304 305 305 305 305 305 304 303 303 302 302 302 302 303 303 303 302 300 298 297 296 295 293 291 290 288 288 288 288 288 287 287 286 286 285 283 282 280 279 279 278
296 297 300 296 295 295 296 295 294 294 295 296 296 296 294 294 293 293 292 292 290 289 288 286 284 282 279 277 279 281 285 288 291 294 296 299 300 301 301 301 301 301 302 304 306 308 311 312 312 313 312 311 310 308 306 304 302 301 301 302 302 301 300 299 297 295 294 293 292 291 291 290 290 289 288 287 286 286 285 284 283 282 282 281 281 280
295 293 292 292 293 293 290 289 291 293 296 299 300 300 299 296 293 291 289 286 285 285 285 285 283 280 277 277 280 283 287 290 293 297 299 301 302 302 301 301 301 302 304 308 312 316 321 323 323 323 321 318 314 310 307 303 301 301 302 304 304 303 302 300 298 296 294 293 293 293 293 292 292 291 289 288 287 286 286 284 283 283 283 283 282 281
286 288 289 290 292 293 291 288 287 290 294 296 298 299 299 298 295 291 287 285 283 282 283 285 287 287 286 288 292 296 299 300 301 301 302 302 300 299 297 297 299 304 311 317 322 327 332 333 332 329 324 318 313 308 305 302 302 303 305 306 306 305 303 301 299 297 296 294 293 293 292 292 292 291 290 290 289 287 286 284 283 282 283 282 282 281
279 285 290 289 286 286 289 291 291 291 290 290 289 290 292 293 293 291 288 284 282 282 283 290 295 298 298 299 301 303 303 301 300 298 297 295 293 293 293 297 305 316 327 329 331 333 335 333 330 325 318 312 309 306 304 303 304 305 305 305 304 302 300 298 297 295 293 291 291 290 289 289 290 290 290 290 290 288 287 285 284 283 282 282 282 282
284 285 285 284 282 281 282 287 291 292 290 287 284 281 278 281 285 288 290 288 289 291 293 297 299 301 301 300 300 300 301 299 297 295 293 291 291 293 298 308 321 332 335 333 331 329 326 322 316 310 305 304 303 303 304 304 304 303 302 300 299 297 296 294 293 291 289 288 287 286 286 286 287 288 289 289 290 290 290 288 287 286 284 284 284 284
283 282 279 280 282 284 283 285 287 288 286 284 282 280 276 273 278 285 291 294 296 298 299 297 295 293 293 296 299 301 299 294 292 290 290 290 294 303 316 326 333 334 331 327 322 318 313 307 301 297 297 298 300 302 303 303 302 301 299 297 295 294 292 291 290 289 288 287 286 284 284 284 284 285 286 287 288 289 290 290 289 288 286 286 285 285
273 274 277 280 282 284 285 286 285 283 279 279 280 283 285 287 287 288 288 289 291 293 294 293 291 288 287 290 294 296 294 289 288 290 295 306 323 339 342 337 329 322 317 314 309 306 304 300 297 296 297 298 300 301 302 302 301 300 299 297 296 294 293 292 292 291 290 289 287 285 283 283 283 284 285 285 286 286 287 287 287 287 286 285 284 283
271 275 278 280 282 282 281 282 282 283 283 281 280 281 283 288 290 288 284 282 282 283 284 286 288 290 290 288 285 283 284 288 294 303 314 324 332 332 325 312 301 295 293 294 294 295 295 296 296 296 297 299 300 301 302 303 302 302 301 300 299 298 298 298 297 296 294 292 290 287 284 283 283 284 285 285 284 284 284 284 284 284 284 283 282 281
277 281 282 281 281 282 282 284 284 284 282 279 277 279 283 286 287 284 281 280 281 282 285 286 287 288 287 286 283 282 285 298 310 318 319 311 301 289 285 283 280 280 283 286 287 288 289 289 289 290 293 295 298 300 302 303 303 304 303 304 304 305 305 305 304 302 300 297 294 291 287 285 284 284 285 286 286 285 285 284 283 282 281 281 280 279
277 279 279 280 280 280 281 282 281 279 279 278 278 281 286 288 288 284 279 280 284 289 291 292 291 289 284 279 280 288 307 319 320 312 304 296 288 279 273 276 279 281 282 282 281 281 282 281 281 283 287 293 297 300 301 302 303 303 304 305 307 309 310 311 311 310 309 306 303 299 294 291 289 287 288 288 288 287 286 284 283 281 280 278 277 276
275 276 276 277 278 277 277 274 273 272 276 279 281 281 282 284 284 282 279 283 288 291 291 291 292 291 291 290 294 313 345 330 312 299 294 291 288 282 275 277 280 281 281 278 277 276 276 277 279 282 285 291 295 299 301 302 303 303 304 306 308 311 314 315 317 318 317 314 311 307 303 299 296 294 292 292 291 289 287 285 283 281 279 277 275 273
276 275 275 275 275 274 275 274 273 272 273 275 277 278 276 276 277 280 282 287 290 291 290 287 284 283 286 290 305 338 345 319 304 296 293 291 291 290 286 283 281 280 279 276 274 273 274 276 278 281 285 293 297 300 302 303 304 305 306 308 310 312 314 316 319 320 320 318 316 313 309 305 301 298 297 295 293 291 288 286 284 282 279 277 274 272
277 274 273 273 274 274 273 273 273 274 275 275 278 281 282 281 282 284 286 287 287 285 285 281 278 275 279 289 304 314 312 301 295 292 291 291 292 294 295 290 285 281 279 276 275 274 274 276 280 285 291 297 301 304 306 307 307 308 309 310 311 313 314 315 317 317 317 316 315 313 310 306 302 299 296 294 292 291 289 287 285 283 280 277 275 272
275 271 268 273 277 279 276 272 271 273 275 279 283 285 286 287 287 286 285 283 279 277 274 272 273 281 301 305 303 300 297 292 289 287 285 288 290 292 294 290 286 283 280 278 276 275 278 280 288 295 301 305 307 309 310 311 311 311 311 312 312 313 313 314 314 314 314 314 314 313 310 307 302 298 294 292 290 289 288 287 285 284 281 278 275 272
274 272 269 273 277 280 278 275 274 274 277 281 282 282 282 284 284 282 279 278 275 272 265 265 278 293 298 293 291 291 291 289 288 287 286 288 290 292 294 288 285 283 281 281 280 281 287 293 299 306 310 312 313 313 314 313 313 313 312 312 312 311 311 311 311 312 313 314 314 314 312 308 305 300 296 292 289 287 286 286 285 283 281 278 275 272
273 273 272 271 270 271 274 276 277 278 279 281 281 281 282 283 283 281 280 281 280 278 275 284 288 290 289 287 287 287 285 282 282 284 288 290 292 294 298 293 289 287 287 290 295 301 307 311 313 315 317 317 316 316 315 314 313 312 311 311 310 310 309 309 310 312 315 317 317 317 316 313 309 305 300 295 290 287 284 283 282 281 279 277 275 273
264 266 269 269 268 269 272 276 278 279 278 276 276 279 284 286 287 287 291 294 295 293 292 289 288 288 287 286 286 283 278 273 273 278 286 291 296 301 307 304 301 299 298 303 310 314 318 318 318 318 317 317 316 315 314 313 312 311 310 309 309 309 310 311 312 314 317 318 318 318 317 316 314 311 306 300 295 289 284 282 281 279 278 277 276 274
256 260 264 266 268 270 272 273 274 273 273 275 278 282 287 288 290 294 301 295 290 288 289 292 294 294 291 289 286 283 278 278 283 290 293 294 299 305 314 315 311 307 304 307 313 316 319 317 318 317 316 315 314 313 312 311 310 310 310 310 311 313 314 314 314 314 314 314 314 314 315 315 315 313 310 306 300 295 290 287 285 283 281 279 277 276
254 258 264 270 274 278 280 278 280 283 288 287 288 289 291 294 296 294 284 277 277 283 292 299 301 299 297 297 294 291 290 297 304 308 303 299 301 307 316 320 316 310 306 309 315 319 319 316 315 314 312 311 310 310 309 309 310 311 313 315 316 318 319 317 316 314 312 311 310 310 311 311 312 312 311 308 304 300 296 293 291 289 286 283 280 277
278 281 285 288 291 294 297 299 300 302 304 302 300 298 298 299 295 287 278 277 284 295 304 303 300 298 299 300 298 298 302 309 313 312 307 303 304 307 317 321 316 311 308 312 317 321 318 313 311 309 307 305 306 307 308 310 313 316 318 320 321 321 321 320 318 316 315 313 312 311 310 310 310 310 310 309 306 302 298 297 296 294 292 288 283 279
294 296 297 300 302 305 307 308 308 308 308 305 302 297 294 292 287 285 282 286 295 304 306 303 301 300 301 300 299 301 308 312 313 310 311 309 308 310 317 321 319 314 312 312 315 315 313 309 307 305 304 302 302 306 311 314 317 320 322 321 320 320 320 319 319 319 318 317 316 314 313 312 312 311 310 309 307 305 304 305 304 302 298 294 288 282
296 298 301 304 305 306 306 306 305 304 303 300 298 296 294 291 287 286 285 291 300 304 301 300 301 301 302 301 301 303 306 305 305 311 328 324 316 311 315 319 318 315 312 310 309 308 306 303 301 300 301 302 304 310 316 318 319 319 318 317 316 316 316 317 317 317 317 317 317 317 316 316 315 314 313 312 311 310 311 313 312 310 304 300 295 286
293 296 298 299 300 301 301 301 300 298 296 295 296 297 297 291 281 277 279 287 299 302 299 298 298 299 299 300 300 300 300 298 306 328 351 339 320 308 312 314 314 312 311 307 305 302 299 296 296 298 302 308 311 314 315 316 315 313 310 311 311 312 313 314 315 316 317 317 318 318 318 318 318 317 317 316 315 315 316 317 316 314 307 301 292 280
291 293 294 295 295 295 295 293 291 289 290 293 296 298 299 293 272 254 257 268 286 295 297 298 299 299 300 301 302 301 299 304 325 347 359 339 318 306 309 308 308 310 314 311 308 305 301 298 299 301 306 310 311 310 306 305 302 300 300 304 306 307 310 312 314 316 317 317 318 318 318 318 319 319 319 319 318 319 319 319 318 315 305 294 284 276
289 291 290 289 288 286 285 282 281 283 288 293 296 299 302 299 274 235 239 251 269 285 292 295 296 297 301 303 303 303 303 314 333 347 352 329 309 301 306 303 305 310 322 322 317 312 309 307 305 306 308 308 305 302 298 295 294 294 294 298 301 304 308 311 313 315 316 316 316 317 317 318 318 319 319 319 319 319 319 318 317 314 305 293 283 277
291 292 291 290 289 287 285 286 288 290 294 296 297 299 305 306 289 252 242 244 255 272 283 289 292 294 297 296 296 297 300 309 325 334 337 319 302 297 301 302 306 312 320 318 312 308 306 306 307 308 309 305 301 298 296 295 295 295 296 298 299 302 307 309 312 313 313 314 314 315 315 316 317 318 319 319 320 319 318 317 316 314 310 298 287 283
296 296 296 297 297 298 298 300 301 301 300 297 295 297 307 306 288 267 254 247 249 259 272 284 290 294 296 293 290 290 294 302 315 324 328 318 303 297 302 305 306 308 310 305 298 292 289 294 299 303 304 302 300 299 298 298 298 299 299 300 300 301 305 307 308 309 308 310 311 312 313 314 315 317 318 319 319 318 317 315 313 310 307 303 297 299
301 301 300 301 302 302 303 303 302 300 297 295 295 299 302 290 280 276 277 272 264 259 263 277 287 293 296 294 293 292 293 298 309 316 323 314 303 298 301 302 302 303 304 299 293 288 282 285 291 297 299 299 299 299 300 302 302 302 300 300 300 300 302 303 303 303 303 305 306 307 309 310 312 314 317 317 317 316 315 313 311 309 309 308 308 311
304 303 302 302 302 302 303 302 300 298 295 294 295 296 295 290 290 295 303 299 290 279 270 270 274 280 286 290 292 293 294 298 305 310 312 305 298 295 296 296 297 298 298 294 292 290 285 286 289 292 295 299 300 301 303 303 303 302 299 298 298 298 298 299 299 300 300 302 303 303 304 306 309 312 315 314 313 312 312 312 312 312 312 312 311 308
303 301 300 300 300 301 301 300 299 298 298 301 304 308 310 311 313 314 311 305 298 292 287 278 271 267 267 273 279 284 288 292 298 300 299 296 293 291 290 290 292 293 291 289 287 286 285 287 289 291 294 298 302 305 306 305 304 302 300 299 298 297 295 294 294 295 297 298 299 301 304 307 309 310 310 309 309 309 310 312 314 314 314 313 311 307
298 297 295 296 296 297 298 298 300 305 311 318 321 320 316 314 313 310 305 298 293 290 289 284 278 271 266 263 264 268 275 282 286 289 289 287 285 284 284 285 286 287 285 286 286 287 287 288 290 293 295 298 301 306 309 310 310 307 303 302 300 298 294 292 290 289 290 292 294 298 304 307 308 307 306 307 307 308 309 310 312 313 314 313 311 308
292 291 291 292 293 294 294 298 304 311 315 310 304 300 300 299 299 297 296 290 285 282 282 281 279 275 271 269 266 264 267 271 275 278 279 279 278 279 280 283 284 284 282 283 285 286 287 289 293 297 300 301 302 303 306 308 309 308 306 304 301 296 290 288 286 285 285 288 292 297 302 306 306 306 306 307 308 308 307 308 309 311 313 312 311 309
284 285 286 288 289 290 291 294 295 293 283 276 275 279 285 290 291 289 286 283 279 275 272 273 275 275 273 270 268 267 267 268 271 272 274 273 273 273 277 281 283 284 283 281 280 280 281 286 293 299 303 304 304 303 304 304 306 307 308 307 303 297 290 290 290 291 288 289 293 298 302 304 305 305 304 306 308 309 309 308 309 310 312 313 311 309
277 280 282 284 283 281 281 279 274 266 263 267 275 284 292 296 297 293 287 283 280 278 272 271 273 275 273 271 269 268 269 270 271 271 272 269 268 268 271 275 280 283 284 281 278 277 280 284 289 292 294 295 297 300 302 304 306 309 311 310 308 306 305 304 300 295 290 288 290 295 300 301 300 300 301 302 303 304 304 303 305 306 308 305 306 310
274 279 281 281 280 277 274 269 263 258 260 274 289 300 303 303 302 300 297 295 293 292 291 288 286 285 281 275 271 268 266 266 266 267 271 273 274 275 276 278 281 284 286 284 282 280 280 281 282 283 284 287 292 297 301 304 307 308 308 306 303 302 304 301 295 288 285 287 291 296 301 302 303 304 303 303 301 299 299 299 300 301 303 299 302 311
270 275 277 278 279 279 277 275 272 272 275 287 296 299 298 298 300 301 303 304 303 302 301 301 300 297 293 286 280 273 269 267 272 283 296 301 303 303 301 298 296 295 294 293 290 286 282 282 284 286 291 298 303 306 306 305 305 305 304 302 300 299 298 295 291 288 294 300 304 306 307 305 305 306 306 306 305 303 302 301 301 302 306 311 318 319
263 266 268 270 272 275 279 283 284 286 288 292 291 288 288 291 295 298 299 299 299 299 299 299 298 295 291 290 292 295 294 295 307 319 325 321 319 318 318 318 317 314 313 310 306 304 303 301 300 302 307 311 309 305 300 300 300 302 302 302 302 302 302 304 308 313 316 314 313 312 313 313 311 309 308 306 305 302 300 298 298 300 304 305 305 300
253 259 263 268 273 277 282 284 284 283 284 283 283 285 286 289 291 294 294 294 295 297 299 299 295 289 284 286 291 298 304 308 316 323 327 328 328 329 328 330 330 329 329 325 321 317 316 311 308 305 306 304 298 293 290 292 296 300 302 303 304 304 302 308 316 321 323 320 320 321 326 325 321 315 310 305 302 298 294 291 290 290 291 287 281 276
245 256 262 269 276 282 283 281 279 278 279 281 282 283 286 287 290 291 291 291 294 296 298 298 295 290 287 292 299 307 317 321 324 327 328 330 331 331 331 332 332 332 332 328 321 316 312 307 304 301 300 295 290 287 286 289 293 297 300 306 310 311 310 313 319 324 326 328 329 332 333 330 325 320 316 312 309 304 298 292 288 286 285 279 271 265
241 250 256 262 269 275 278 277 276 275 275 276 276 278 281 285 287 288 288 290 294 297 298 298 297 296 304 313 323 329 333 330 328 329 332 332 333 333 332 330 330 328 324 318 310 303 297 294 295 296 297 293 289 286 284 287 290 294 300 313 319 322 322 325 329 332 333 333 331 328 326 327 328 327 325 321 318 314 309 303 299 297 298 293 288 283
229 237 244 252 261 267 271 273 271 269 266 268 271 276 281 285 287 289 288 291 295 298 301 300 300 303 313 323 334 340 337 331 330 330 333 333 332 330 329 328 326 322 316 308 301 293 285 280 278 279 282 284 285 286 286 287 290 296 310 324 327 328 327 329 329 327 327 328 326 324 325 331 334 331 326 323 321 320 321 322 319 314 307 305 307 309
219 227 234 242 255 264 270 269 264 261 263 268 273 279 285 289 295 297 295 295 298 300 301 301 303 310 318 331 338 339 334 329 329 331 333 334 333 331 331 328 324 318 311 303 297 290 282 274 266 261 260 264 271 278 284 289 298 312 329 332 331 328 326 322 319 318 319 321 320 321 327 333 332 328 325 324 323 324 328 331 328 318 308 310 314 319
201 208 219 231 248 260 266 265 263 262 265 271 277 283 287 292 299 302 299 297 297 297 297 298 302 311 323 330 332 332 331 331 332 333 335 334 332 331 330 328 325 321 314 307 303 297 290 279 267 257 250 251 258 267 281 300 320 331 334 334 331 327 323 318 315 314 317 317 318 319 323 320 317 317 322 326 327 328 330 331 328 321 314 319 323 323
187 198 209 223 242 256 263 265 265 265 265 269 275 282 288 295 300 301 296 294 293 292 290 290 296 309 323 327 329 332 336 337 336 336 335 332 330 329 328 327 327 327 325 324 324 322 317 308 294 282 278 297 312 321 328 338 338 337 336 337 333 328 322 318 316 316 318 318 317 317 319 315 315 320 329 332 331 330 329 328 326 322 318 321 322 321
187 198 208 220 239 256 266 269 269 267 264 264 267 274 286 297 301 300 297 294 293 291 287 280 281 300 319 326 329 335 341 341 338 335 333 330 328 326 325 325 329 333 336 337 338 339 339 336 332 328 331 344 353 358 355 349 343 339 337 336 332 328 322 320 318 318 321 320 317 314 316 322 328 334 342 340 335 330 327 323 319 315 313 315 318 318